Year,Month,Day,Hour,Minute,Value (Times are PST for temperature in C)
2018,11,13,00,00,4.30
2018,11,13,00,01,4.30
2018,11,13,00,02,4.30
2018,11,13,00,03,4.20
2018,11,13,00,04,4.20
2018,11,13,00,05,4.20
2018,11,13,00,06,4.20
2018,11,13,00,07,4.20
2018,11,13,00,08,4.20
2018,11,13,00,09,4.20
2018,11,13,00,10,4.20
2018,11,13,00,11,4.20
2018,11,13,00,12,4.10
2018,11,13,00,13,4.10
2018,11,13,00,14,4.10
2018,11,13,00,15,4.10
2018,11,13,00,16,4.10
2018,11,13,00,17,4.20
2018,11,13,00,18,4.20
2018,11,13,00,19,4.20
2018,11,13,00,20,4.20
2018,11,13,00,21,4.20
2018,11,13,00,22,4.30
2018,11,13,00,23,4.30
2018,11,13,00,24,4.30
2018,11,13,00,25,4.20
2018,11,13,00,26,4.10
2018,11,13,00,27,4.00
2018,11,13,00,28,3.90
2018,11,13,00,29,3.90
2018,11,13,00,30,3.90
2018,11,13,00,31,3.90
2018,11,13,00,32,4.00
2018,11,13,00,33,4.10
2018,11,13,00,34,4.10
2018,11,13,00,35,4.20
2018,11,13,00,36,4.30
2018,11,13,00,37,4.30
2018,11,13,00,38,4.30
2018,11,13,00,39,4.30
2018,11,13,00,40,4.30
2018,11,13,00,41,4.30
2018,11,13,00,42,4.40
2018,11,13,00,43,4.40
2018,11,13,00,44,4.40
2018,11,13,00,45,4.40
2018,11,13,00,46,4.40
2018,11,13,00,47,4.40
2018,11,13,00,48,4.40
2018,11,13,00,49,4.40
2018,11,13,00,50,4.40
2018,11,13,00,51,4.40
2018,11,13,00,52,4.40
2018,11,13,00,53,4.40
2018,11,13,00,54,4.40
2018,11,13,00,55,4.40
2018,11,13,00,56,4.40
2018,11,13,00,57,4.40
2018,11,13,00,58,4.40
2018,11,13,00,59,4.40
2018,11,13,01,00,4.40
2018,11,13,01,01,4.40
2018,11,13,01,02,4.40
2018,11,13,01,03,4.40
2018,11,13,01,04,4.40
2018,11,13,01,05,4.40
2018,11,13,01,06,4.40
2018,11,13,01,07,4.40
2018,11,13,01,08,4.40
2018,11,13,01,09,4.40
2018,11,13,01,10,4.40
2018,11,13,01,11,4.40
2018,11,13,01,12,4.40
2018,11,13,01,13,4.40
2018,11,13,01,14,4.40
2018,11,13,01,15,4.40
2018,11,13,01,16,4.30
2018,11,13,01,17,4.30
2018,11,13,01,18,4.30
2018,11,13,01,19,4.30
2018,11,13,01,20,4.30
2018,11,13,01,21,4.40
2018,11,13,01,22,4.40
2018,11,13,01,23,4.40
2018,11,13,01,24,4.40
2018,11,13,01,25,4.40
2018,11,13,01,26,4.40
2018,11,13,01,27,4.40
2018,11,13,01,28,4.40
2018,11,13,01,29,4.40
2018,11,13,01,30,4.40
2018,11,13,01,31,4.40
2018,11,13,01,32,4.40
2018,11,13,01,33,4.40
2018,11,13,01,34,4.40
2018,11,13,01,35,4.40
2018,11,13,01,36,4.30
2018,11,13,01,37,4.30
2018,11,13,01,38,4.30
2018,11,13,01,39,4.30
2018,11,13,01,40,4.30
2018,11,13,01,41,4.20
2018,11,13,01,42,4.20
2018,11,13,01,43,4.20
2018,11,13,01,44,4.20
2018,11,13,01,45,4.20
2018,11,13,01,46,4.20
2018,11,13,01,47,4.20
2018,11,13,01,48,4.20
2018,11,13,01,49,4.20
2018,11,13,01,50,4.20
2018,11,13,01,51,4.20
2018,11,13,01,52,4.20
2018,11,13,01,53,4.20
2018,11,13,01,54,4.20
2018,11,13,01,55,4.10
2018,11,13,01,56,4.10
2018,11,13,01,57,4.10
2018,11,13,01,58,4.10
2018,11,13,01,59,4.10
2018,11,13,02,00,4.10
2018,11,13,02,01,4.20
2018,11,13,02,02,4.20
2018,11,13,02,03,4.20
2018,11,13,02,04,4.30
2018,11,13,02,05,4.30
2018,11,13,02,06,4.30
2018,11,13,02,07,4.30
2018,11,13,02,08,4.30
2018,11,13,02,09,4.30
2018,11,13,02,10,4.30
2018,11,13,02,11,4.30
2018,11,13,02,12,4.40
2018,11,13,02,13,4.40
2018,11,13,02,14,4.40
2018,11,13,02,15,4.40
2018,11,13,02,16,4.50
2018,11,13,02,17,4.50
2018,11,13,02,18,4.50
2018,11,13,02,19,4.50
2018,11,13,02,20,4.50
2018,11,13,02,21,4.50
2018,11,13,02,22,4.50
2018,11,13,02,23,4.50
2018,11,13,02,24,4.50
2018,11,13,02,25,4.50
2018,11,13,02,26,4.50
2018,11,13,02,27,4.50
2018,11,13,02,28,4.50
2018,11,13,02,29,4.50
2018,11,13,02,30,4.50
2018,11,13,02,31,4.50
2018,11,13,02,32,4.60
2018,11,13,02,33,4.60
2018,11,13,02,34,4.60
2018,11,13,02,35,4.60
2018,11,13,02,36,4.60
2018,11,13,02,37,4.60
2018,11,13,02,38,4.60
2018,11,13,02,39,4.60
2018,11,13,02,40,4.60
2018,11,13,02,41,4.60
2018,11,13,02,42,4.60
2018,11,13,02,43,4.60
2018,11,13,02,44,4.60
2018,11,13,02,45,4.60
2018,11,13,02,46,4.60
2018,11,13,02,47,4.60
2018,11,13,02,48,4.50
2018,11,13,02,49,4.50
2018,11,13,02,50,4.50
2018,11,13,02,51,4.50
2018,11,13,02,52,4.60
2018,11,13,02,53,4.60
2018,11,13,02,54,4.60
2018,11,13,02,55,4.50
2018,11,13,02,56,4.50
2018,11,13,02,57,4.50
2018,11,13,02,58,4.50
2018,11,13,02,59,4.50
2018,11,13,03,00,4.40
2018,11,13,03,01,4.40
2018,11,13,03,02,4.40
2018,11,13,03,03,4.40
2018,11,13,03,04,4.40
2018,11,13,03,05,4.40
2018,11,13,03,06,4.40
2018,11,13,03,07,4.50
2018,11,13,03,08,4.50
2018,11,13,03,09,4.50
2018,11,13,03,10,4.40
2018,11,13,03,11,4.40
2018,11,13,03,12,4.40
2018,11,13,03,13,4.40
2018,11,13,03,14,4.40
2018,11,13,03,15,4.40
2018,11,13,03,16,4.40
2018,11,13,03,17,4.40
2018,11,13,03,18,4.40
2018,11,13,03,19,4.40
2018,11,13,03,20,4.40
2018,11,13,03,21,4.40
2018,11,13,03,22,4.40
2018,11,13,03,23,4.40
2018,11,13,03,24,4.40
2018,11,13,03,25,4.40
2018,11,13,03,26,4.40
2018,11,13,03,27,4.40
2018,11,13,03,28,4.40
2018,11,13,03,29,4.40
2018,11,13,03,30,4.40
2018,11,13,03,31,4.30
2018,11,13,03,32,4.30
2018,11,13,03,33,4.30
2018,11,13,03,34,4.30
2018,11,13,03,35,4.30
2018,11,13,03,36,4.30
2018,11,13,03,37,4.30
2018,11,13,03,38,4.30
2018,11,13,03,39,4.30
2018,11,13,03,40,4.30
2018,11,13,03,41,4.30
2018,11,13,03,42,4.30
2018,11,13,03,43,4.30
2018,11,13,03,44,4.30
2018,11,13,03,45,4.30
2018,11,13,03,46,4.30
2018,11,13,03,47,4.20
2018,11,13,03,48,4.20
2018,11,13,03,49,4.20
2018,11,13,03,50,4.10
2018,11,13,03,51,4.10
2018,11,13,03,52,4.00
2018,11,13,03,53,4.00
2018,11,13,03,54,3.90
2018,11,13,03,55,3.90
2018,11,13,03,56,3.80
2018,11,13,03,57,3.80
2018,11,13,03,58,3.70
2018,11,13,03,59,3.70
2018,11,13,04,00,3.70
2018,11,13,04,01,3.70
2018,11,13,04,02,3.70
2018,11,13,04,03,3.60
2018,11,13,04,04,3.60
2018,11,13,04,05,3.60
2018,11,13,04,06,3.60
2018,11,13,04,07,3.60
2018,11,13,04,08,3.60
2018,11,13,04,09,3.60
2018,11,13,04,10,3.60
2018,11,13,04,11,3.60
2018,11,13,04,12,3.60
2018,11,13,04,13,3.60
2018,11,13,04,14,3.60
2018,11,13,04,15,3.60
2018,11,13,04,16,3.50
2018,11,13,04,17,3.50
2018,11,13,04,18,3.50
2018,11,13,04,19,3.40
2018,11,13,04,20,3.50
2018,11,13,04,21,3.50
2018,11,13,04,22,3.50
2018,11,13,04,23,3.50
2018,11,13,04,24,3.50
2018,11,13,04,25,3.60
2018,11,13,04,26,3.60
2018,11,13,04,27,3.70
2018,11,13,04,28,3.70
2018,11,13,04,29,3.70
2018,11,13,04,30,3.70
2018,11,13,04,31,3.70
2018,11,13,04,32,3.70
2018,11,13,04,33,3.70
2018,11,13,04,34,3.70
2018,11,13,04,35,3.70
2018,11,13,04,36,3.70
2018,11,13,04,37,3.80
2018,11,13,04,38,3.80
2018,11,13,04,39,3.80
2018,11,13,04,40,3.80
2018,11,13,04,41,3.80
2018,11,13,04,42,3.80
2018,11,13,04,43,3.80
2018,11,13,04,44,3.80
2018,11,13,04,45,3.70
2018,11,13,04,46,3.70
2018,11,13,04,47,3.70
2018,11,13,04,48,3.70
2018,11,13,04,49,3.70
2018,11,13,04,50,3.70
2018,11,13,04,51,3.70
2018,11,13,04,52,3.70
2018,11,13,04,53,3.60
2018,11,13,04,54,3.60
2018,11,13,04,55,3.50
2018,11,13,04,56,3.50
2018,11,13,04,57,3.50
2018,11,13,04,58,3.50
2018,11,13,04,59,3.50
2018,11,13,05,00,3.50
2018,11,13,05,01,3.60
2018,11,13,05,02,3.50
2018,11,13,05,03,3.50
2018,11,13,05,04,3.50
2018,11,13,05,05,3.50
2018,11,13,05,06,3.50
2018,11,13,05,07,3.50
2018,11,13,05,08,3.60
2018,11,13,05,09,3.70
2018,11,13,05,10,3.70
2018,11,13,05,11,3.70
2018,11,13,05,12,3.70
2018,11,13,05,13,3.70
2018,11,13,05,14,3.70
2018,11,13,05,15,3.70
2018,11,13,05,16,3.70
2018,11,13,05,17,3.70
2018,11,13,05,18,3.60
2018,11,13,05,19,3.70
2018,11,13,05,20,3.70
2018,11,13,05,21,3.70
2018,11,13,05,22,3.70
2018,11,13,05,23,3.70
2018,11,13,05,24,3.70
2018,11,13,05,25,3.70
2018,11,13,05,26,3.70
2018,11,13,05,27,3.60
2018,11,13,05,28,3.60
2018,11,13,05,29,3.60
2018,11,13,05,30,3.60
2018,11,13,05,31,3.60
2018,11,13,05,32,3.60
2018,11,13,05,33,3.60
2018,11,13,05,34,3.60
2018,11,13,05,35,3.50
2018,11,13,05,36,3.50
2018,11,13,05,37,3.50
2018,11,13,05,38,3.50
2018,11,13,05,39,3.50
2018,11,13,05,40,3.60
2018,11,13,05,41,3.60
2018,11,13,05,42,3.60
2018,11,13,05,43,3.70
2018,11,13,05,44,3.70
2018,11,13,05,45,3.70
2018,11,13,05,46,3.70
2018,11,13,05,47,3.70
2018,11,13,05,48,3.70
2018,11,13,05,49,3.70
2018,11,13,05,50,3.70
2018,11,13,05,51,3.70
2018,11,13,05,52,3.70
2018,11,13,05,53,3.70
2018,11,13,05,54,3.80
2018,11,13,05,55,3.80
2018,11,13,05,56,3.80
2018,11,13,05,57,3.80
2018,11,13,05,58,3.80
2018,11,13,05,59,3.80
2018,11,13,06,00,3.80
2018,11,13,06,01,3.80
2018,11,13,06,02,3.80
2018,11,13,06,03,3.80
2018,11,13,06,04,3.80
2018,11,13,06,05,3.80
2018,11,13,06,06,3.80
2018,11,13,06,07,3.80
2018,11,13,06,08,3.80
2018,11,13,06,09,3.80
2018,11,13,06,10,3.80
2018,11,13,06,11,3.80
2018,11,13,06,12,3.80
2018,11,13,06,13,3.70
2018,11,13,06,14,3.70
2018,11,13,06,15,3.70
2018,11,13,06,16,3.70
2018,11,13,06,17,3.70
2018,11,13,06,18,3.70
2018,11,13,06,19,3.70
2018,11,13,06,20,3.70
2018,11,13,06,21,3.70
2018,11,13,06,22,3.70
2018,11,13,06,23,3.60
2018,11,13,06,24,3.50
2018,11,13,06,25,3.50
2018,11,13,06,26,3.50
2018,11,13,06,27,3.40
2018,11,13,06,28,3.40
2018,11,13,06,29,3.40
2018,11,13,06,30,3.30
2018,11,13,06,31,3.30
2018,11,13,06,32,3.30
2018,11,13,06,33,3.30
2018,11,13,06,34,3.30
2018,11,13,06,35,3.30
2018,11,13,06,36,3.30
2018,11,13,06,37,3.30
2018,11,13,06,38,3.20
2018,11,13,06,39,3.10
2018,11,13,06,40,3.10
2018,11,13,06,41,3.00
2018,11,13,06,42,3.00
2018,11,13,06,43,3.00
2018,11,13,06,44,3.00
2018,11,13,06,45,3.00
2018,11,13,06,46,3.00
2018,11,13,06,47,3.00
2018,11,13,06,48,3.00
2018,11,13,06,49,2.90
2018,11,13,06,50,2.90
2018,11,13,06,51,2.90
2018,11,13,06,52,2.90
2018,11,13,06,53,2.80
2018,11,13,06,54,2.80
2018,11,13,06,55,2.80
2018,11,13,06,56,2.80
2018,11,13,06,57,2.80
2018,11,13,06,58,2.80
2018,11,13,06,59,2.80
2018,11,13,07,00,2.80
2018,11,13,07,01,2.80
2018,11,13,07,02,2.80
2018,11,13,07,03,2.80
2018,11,13,07,04,2.80
2018,11,13,07,05,2.80
2018,11,13,07,06,2.90
2018,11,13,07,07,2.90
2018,11,13,07,08,2.90
2018,11,13,07,09,3.00
2018,11,13,07,10,3.00
2018,11,13,07,11,3.00
2018,11,13,07,12,2.90
2018,11,13,07,13,2.90
2018,11,13,07,14,2.90
2018,11,13,07,15,2.90
2018,11,13,07,16,3.00
2018,11,13,07,17,3.00
2018,11,13,07,18,3.00
2018,11,13,07,19,3.00
2018,11,13,07,20,3.00
2018,11,13,07,21,3.10
2018,11,13,07,22,3.10
2018,11,13,07,23,3.10
2018,11,13,07,24,3.20
2018,11,13,07,25,3.20
2018,11,13,07,26,3.20
2018,11,13,07,27,3.20
2018,11,13,07,28,3.20
2018,11,13,07,29,3.20
2018,11,13,07,30,3.20
2018,11,13,07,31,3.20
2018,11,13,07,32,3.10
2018,11,13,07,33,3.10
2018,11,13,07,34,3.20
2018,11,13,07,35,3.20
2018,11,13,07,36,3.20
2018,11,13,07,37,3.20
2018,11,13,07,38,3.20
2018,11,13,07,39,3.20
2018,11,13,07,40,3.20
2018,11,13,07,41,3.20
2018,11,13,07,42,3.20
2018,11,13,07,43,3.20
2018,11,13,07,44,3.20
2018,11,13,07,45,3.20
2018,11,13,07,46,3.20
2018,11,13,07,47,3.20
2018,11,13,07,48,3.10
2018,11,13,07,49,3.10
2018,11,13,07,50,3.10
2018,11,13,07,51,3.10
2018,11,13,07,52,3.10
2018,11,13,07,53,3.10
2018,11,13,07,54,3.10
2018,11,13,07,55,3.10
2018,11,13,07,56,3.10
2018,11,13,07,57,3.10
2018,11,13,07,58,3.20
2018,11,13,07,59,3.20
2018,11,13,08,00,3.30
2018,11,13,08,01,3.30
2018,11,13,08,02,3.40
2018,11,13,08,03,3.50
2018,11,13,08,04,3.60
2018,11,13,08,05,3.60
2018,11,13,08,06,3.70
2018,11,13,08,07,3.80
2018,11,13,08,08,3.80
2018,11,13,08,09,3.80
2018,11,13,08,10,3.90
2018,11,13,08,11,3.90
2018,11,13,08,12,4.00
2018,11,13,08,13,4.10
2018,11,13,08,14,4.10
2018,11,13,08,15,4.20
2018,11,13,08,16,4.20
2018,11,13,08,17,4.20
2018,11,13,08,18,4.30
2018,11,13,08,19,4.30
2018,11,13,08,20,4.30
2018,11,13,08,21,4.30
2018,11,13,08,22,4.40
2018,11,13,08,23,4.40
2018,11,13,08,24,4.40
2018,11,13,08,25,4.40
2018,11,13,08,26,4.40
2018,11,13,08,27,4.50
2018,11,13,08,28,4.50
2018,11,13,08,29,4.60
2018,11,13,08,30,4.60
2018,11,13,08,31,4.60
2018,11,13,08,32,4.60
2018,11,13,08,33,4.60
2018,11,13,08,34,4.60
2018,11,13,08,35,4.60
2018,11,13,08,36,4.60
2018,11,13,08,37,4.60
2018,11,13,08,38,4.60
2018,11,13,08,39,4.60
2018,11,13,08,40,4.60
2018,11,13,08,41,4.60
2018,11,13,08,42,4.60
2018,11,13,08,43,4.60
2018,11,13,09,00,4.80
2018,11,13,09,01,4.80
2018,11,13,09,02,4.90
2018,11,13,09,03,4.90
2018,11,13,09,04,4.90
2018,11,13,09,05,4.90
2018,11,13,09,06,4.90
2018,11,13,09,07,4.90
2018,11,13,09,08,5.00
2018,11,13,09,09,5.00
2018,11,13,09,10,5.00
2018,11,13,09,11,5.00
2018,11,13,09,12,5.00
2018,11,13,09,13,5.00
2018,11,13,09,14,5.00
2018,11,13,09,15,5.00
2018,11,13,09,16,5.00
2018,11,13,09,17,5.00
2018,11,13,09,18,5.00
2018,11,13,09,19,5.10
2018,11,13,09,20,5.10
2018,11,13,09,21,5.10
2018,11,13,09,22,5.10
2018,11,13,09,23,5.10
2018,11,13,09,24,5.10
2018,11,13,09,25,5.20
2018,11,13,09,26,5.20
2018,11,13,09,27,5.20
2018,11,13,09,28,5.30
2018,11,13,09,29,5.30
2018,11,13,09,30,5.30
2018,11,13,09,31,5.30
2018,11,13,09,32,5.30
2018,11,13,09,33,5.30
2018,11,13,09,34,5.30
2018,11,13,09,35,5.30
2018,11,13,09,36,5.30
2018,11,13,09,37,5.30
2018,11,13,09,38,5.30
2018,11,13,09,39,5.30
2018,11,13,09,40,5.30
2018,11,13,09,41,5.30
2018,11,13,09,42,5.40
2018,11,13,09,43,5.40
2018,11,13,09,44,5.40
2018,11,13,09,45,5.40
2018,11,13,09,46,5.50
2018,11,13,09,47,5.60
2018,11,13,09,48,5.60
2018,11,13,09,49,5.70
2018,11,13,09,50,5.70
2018,11,13,09,51,5.70
2018,11,13,09,52,5.70
2018,11,13,09,53,5.70
2018,11,13,09,54,5.70
2018,11,13,09,55,5.80
2018,11,13,09,56,5.80
2018,11,13,09,57,5.80
2018,11,13,09,58,5.80
2018,11,13,09,59,5.80
2018,11,13,10,00,5.80
2018,11,13,10,01,5.80
2018,11,13,10,02,5.80
2018,11,13,10,03,5.80
2018,11,13,10,04,5.80
2018,11,13,10,05,5.80
2018,11,13,10,06,5.80
2018,11,13,10,07,5.90
2018,11,13,10,08,5.90
2018,11,13,10,09,5.90
2018,11,13,10,10,5.90
2018,11,13,10,11,5.90
2018,11,13,10,12,6.00
2018,11,13,10,13,6.00
2018,11,13,10,14,6.00
2018,11,13,10,15,6.00
2018,11,13,10,16,6.00
2018,11,13,10,17,6.00
2018,11,13,10,18,6.00
2018,11,13,10,19,6.00
2018,11,13,10,20,6.00
2018,11,13,10,21,6.00
2018,11,13,10,22,6.10
2018,11,13,10,23,6.10
2018,11,13,10,24,6.20
2018,11,13,10,25,6.20
2018,11,13,10,26,6.20
2018,11,13,10,27,6.30
2018,11,13,10,28,6.30
2018,11,13,10,29,6.40
2018,11,13,10,30,6.40
2018,11,13,10,31,6.50
2018,11,13,10,32,6.60
2018,11,13,10,33,6.60
2018,11,13,10,34,6.60
2018,11,13,10,35,6.70
2018,11,13,10,36,6.70
2018,11,13,10,37,6.80
2018,11,13,10,38,6.80
2018,11,13,10,39,6.90
2018,11,13,12,24,9.50
2018,11,13,12,25,9.50
2018,11,13,12,26,9.50
2018,11,13,12,27,9.50
2018,11,13,12,28,9.50
2018,11,13,12,29,9.60
2018,11,13,12,30,9.60
2018,11,13,12,31,9.60
2018,11,13,12,32,9.50
2018,11,13,12,33,9.50
2018,11,13,12,34,9.40
2018,11,13,12,35,9.40
2018,11,13,12,36,9.40
2018,11,13,12,37,9.40
2018,11,13,12,38,9.40
2018,11,13,12,39,9.40
2018,11,13,12,40,9.40
2018,11,13,12,41,9.40
2018,11,13,12,42,9.40
2018,11,13,12,43,9.40
2018,11,13,12,44,9.40
2018,11,13,12,45,9.50
2018,11,13,12,46,9.50
2018,11,13,12,47,9.50
2018,11,13,12,48,9.60
2018,11,13,12,49,9.60
2018,11,13,12,50,9.60
2018,11,13,12,51,9.70
2018,11,13,12,52,9.70
2018,11,13,12,53,9.70
2018,11,13,12,54,9.70
2018,11,13,12,55,9.70
2018,11,13,12,56,9.70
2018,11,13,12,57,9.70
2018,11,13,12,58,9.70
2018,11,13,12,59,9.60
2018,11,13,13,00,9.60
2018,11,13,13,01,9.60
2018,11,13,13,02,9.60
2018,11,13,13,03,9.60
2018,11,13,13,04,9.60
2018,11,13,13,05,9.60
2018,11,13,13,06,9.60
2018,11,13,13,07,9.60
2018,11,13,13,08,9.60
2018,11,13,13,09,9.60
2018,11,13,13,10,9.60
2018,11,13,13,11,9.70
2018,11,13,13,12,9.70
2018,11,13,13,13,9.80
2018,11,13,13,14,9.70
2018,11,13,13,15,9.70
2018,11,13,13,16,9.70
2018,11,13,13,17,9.60
2018,11,13,13,18,9.60
2018,11,13,13,19,9.70
2018,11,13,13,20,9.70
2018,11,13,13,21,9.70
2018,11,13,13,22,9.70
2018,11,13,13,23,9.70
2018,11,13,13,24,9.70
2018,11,13,13,25,9.70
2018,11,13,13,26,9.80
2018,11,13,13,27,9.80
2018,11,13,13,28,9.80
2018,11,13,13,29,9.80
2018,11,13,13,30,9.80
2018,11,13,13,31,9.80
2018,11,13,13,32,9.70
2018,11,13,13,33,9.70
2018,11,13,13,34,9.70
2018,11,13,13,35,9.70
2018,11,13,13,36,9.70
2018,11,13,13,37,9.70
2018,11,13,13,38,9.80
2018,11,13,13,39,9.80
2018,11,13,13,40,9.80
2018,11,13,13,41,9.90
2018,11,13,13,42,9.90
2018,11,13,13,43,9.90
2018,11,13,13,44,9.90
2018,11,13,13,45,9.90
2018,11,13,13,46,9.90
2018,11,13,13,47,9.80
2018,11,13,13,48,9.90
2018,11,13,13,49,9.90
2018,11,13,13,50,9.90
2018,11,13,13,51,10.00
2018,11,13,13,52,10.00
2018,11,13,13,53,10.10
2018,11,13,13,54,10.10
2018,11,13,13,55,10.10
2018,11,13,13,56,10.10
2018,11,13,13,57,10.10
2018,11,13,13,58,10.10
2018,11,13,13,59,10.10
2018,11,13,14,00,10.10
2018,11,13,14,01,10.10
2018,11,13,14,02,10.10
2018,11,13,14,03,10.10
2018,11,13,14,04,10.10
2018,11,13,14,05,10.10
2018,11,13,14,06,10.10
2018,11,13,14,07,10.10
2018,11,13,14,08,10.10
2018,11,13,14,09,10.00
2018,11,13,14,10,10.00
2018,11,13,14,11,10.00
2018,11,13,14,12,10.10
2018,11,13,14,13,10.10
2018,11,13,14,14,10.10
2018,11,13,14,15,10.10
2018,11,13,14,16,10.10
2018,11,13,14,17,10.10
2018,11,13,14,18,10.20
2018,11,13,14,19,10.20
2018,11,13,14,20,10.20
2018,11,13,14,21,10.20
2018,11,13,14,22,10.20
2018,11,13,14,23,10.20
2018,11,13,14,24,10.20
2018,11,13,14,25,10.20
2018,11,13,14,26,10.20
2018,11,13,14,27,10.10
2018,11,13,14,28,10.10
2018,11,13,14,29,10.10
2018,11,13,14,30,10.00
2018,11,13,14,31,10.00
2018,11,13,14,32,10.00
2018,11,13,14,33,10.00
2018,11,13,14,34,10.00
2018,11,13,14,35,9.90
2018,11,13,14,36,9.90
2018,11,13,14,37,9.90
2018,11,13,14,38,9.90
2018,11,13,14,39,9.80
2018,11,13,14,40,9.80
2018,11,13,14,41,9.80
2018,11,13,14,42,9.80
2018,11,13,14,43,9.80
2018,11,13,14,44,9.80
2018,11,13,14,45,9.80
2018,11,13,14,46,9.80
2018,11,13,14,47,9.90
2018,11,13,14,48,9.90
2018,11,13,14,49,9.90
2018,11,13,14,50,9.90
2018,11,13,14,51,9.90
2018,11,13,14,52,9.90
2018,11,13,14,53,9.90
2018,11,13,14,54,9.90
2018,11,13,14,55,9.90
2018,11,13,14,56,9.90
2018,11,13,14,57,9.90
2018,11,13,14,58,9.90
2018,11,13,14,59,9.90
2018,11,13,15,00,9.90
2018,11,13,15,01,9.90
2018,11,13,15,02,9.90
2018,11,13,15,03,9.90
2018,11,13,15,04,9.90
2018,11,13,15,05,9.90
2018,11,13,15,06,9.90
2018,11,13,15,07,9.90
2018,11,13,15,08,9.90
2018,11,13,15,09,9.90
2018,11,13,15,10,9.90
2018,11,13,15,11,9.90
2018,11,13,15,12,9.90
2018,11,13,15,13,9.90
2018,11,13,15,14,9.90
2018,11,13,15,15,9.90
2018,11,13,15,16,9.90
2018,11,13,15,17,9.80
2018,11,13,15,18,9.80
2018,11,13,15,19,9.80
2018,11,13,15,20,9.80
2018,11,13,15,21,9.80
2018,11,13,15,22,9.80
2018,11,13,15,23,9.80
2018,11,13,15,24,9.80
2018,11,13,15,25,9.80
2018,11,13,15,26,9.80
2018,11,13,15,27,9.80
2018,11,13,15,28,9.80
2018,11,13,15,29,9.80
2018,11,13,15,30,9.90
2018,11,13,15,31,9.90
2018,11,13,15,32,9.90
2018,11,13,15,33,9.80
2018,11,13,15,34,9.80
2018,11,13,15,35,9.80
2018,11,13,15,36,9.80
2018,11,13,15,37,9.80
2018,11,13,15,38,9.70
2018,11,13,15,39,9.70
2018,11,13,15,40,9.70
2018,11,13,15,41,9.70
2018,11,13,15,42,9.70
2018,11,13,15,43,9.70
2018,11,13,15,44,9.70
2018,11,13,15,45,9.60
2018,11,13,15,46,9.60
2018,11,13,15,47,9.60
2018,11,13,15,48,9.60
2018,11,13,15,49,9.60
2018,11,13,15,50,9.60
2018,11,13,15,51,9.60
2018,11,13,15,52,9.50
2018,11,13,15,53,9.50
2018,11,13,15,54,9.50
2018,11,13,15,55,9.40
2018,11,13,15,56,9.40
2018,11,13,15,57,9.40
2018,11,13,15,58,9.30
2018,11,13,15,59,9.30
2018,11,13,16,00,9.30
2018,11,13,16,01,9.30
2018,11,13,16,02,9.30
2018,11,13,16,03,9.20
2018,11,13,16,04,9.20
2018,11,13,16,05,9.20
2018,11,13,16,06,9.20
2018,11,13,16,07,9.20
2018,11,13,16,08,9.10
2018,11,13,16,09,9.10
2018,11,13,16,10,9.10
2018,11,13,16,11,9.10
2018,11,13,16,12,9.10
2018,11,13,16,13,9.10
2018,11,13,16,14,9.10
2018,11,13,16,15,9.10
2018,11,13,16,16,9.00
2018,11,13,16,17,9.00
2018,11,13,16,18,9.00
2018,11,13,16,19,9.00
2018,11,13,16,20,9.00
2018,11,13,16,21,9.00
2018,11,13,16,22,9.00
2018,11,13,16,23,9.00
2018,11,13,16,24,9.00
2018,11,13,16,25,8.90
2018,11,13,16,26,8.90
2018,11,13,16,27,8.90
2018,11,13,16,28,8.90
2018,11,13,16,29,8.90
2018,11,13,16,30,9.00
2018,11,13,16,31,9.00
2018,11,13,16,32,9.00
2018,11,13,16,33,9.10
2018,11,13,16,34,9.00
2018,11,13,16,35,9.10
2018,11,13,16,36,9.10
2018,11,13,16,37,9.10
2018,11,13,16,38,9.10
2018,11,13,16,39,9.00
2018,11,13,16,40,9.00
2018,11,13,16,41,9.00
2018,11,13,16,42,9.00
2018,11,13,16,43,8.90
2018,11,13,16,44,8.90
2018,11,13,16,45,8.90
2018,11,13,16,46,8.90
2018,11,13,16,47,8.80
2018,11,13,16,48,8.80
2018,11,13,16,49,8.80
2018,11,13,16,50,8.80
2018,11,13,16,51,8.80
2018,11,13,16,52,8.80
2018,11,13,16,53,8.80
2018,11,13,16,54,8.80
2018,11,13,16,55,8.80
2018,11,13,16,56,8.80
2018,11,13,16,57,8.80
2018,11,13,16,58,8.80
2018,11,13,16,59,8.80
2018,11,13,17,00,8.70
2018,11,13,17,01,8.80
2018,11,13,17,02,8.80
2018,11,13,17,03,8.80
2018,11,13,17,04,8.80
2018,11,13,17,05,8.80
2018,11,13,17,06,8.80
2018,11,13,17,07,8.80
2018,11,13,17,08,8.70
2018,11,13,17,09,8.70
2018,11,13,17,10,8.70
2018,11,13,17,11,8.70
2018,11,13,17,12,8.70
2018,11,13,17,13,8.70
2018,11,13,17,14,8.70
2018,11,13,17,15,8.70
2018,11,13,17,16,8.70
2018,11,13,17,17,8.70
2018,11,13,17,18,8.70
2018,11,13,17,19,8.60
2018,11,13,17,20,8.60
2018,11,13,17,21,8.60
2018,11,13,17,22,8.60
2018,11,13,17,23,8.60
2018,11,13,17,24,8.60
2018,11,13,17,25,8.60
2018,11,13,17,26,8.60
2018,11,13,17,27,8.60
2018,11,13,17,28,8.60
2018,11,13,17,29,8.60
2018,11,13,17,30,8.60
2018,11,13,17,31,8.60
2018,11,13,17,32,8.60
2018,11,13,17,33,8.70
2018,11,13,17,34,8.70
2018,11,13,17,35,8.70
2018,11,13,17,36,8.70
2018,11,13,17,37,8.70
2018,11,13,17,38,8.70
2018,11,13,17,39,8.70
2018,11,13,17,40,8.60
2018,11,13,17,41,8.60
2018,11,13,17,42,8.60
2018,11,13,17,43,8.60
2018,11,13,17,44,8.60
2018,11,13,17,45,8.60
2018,11,13,17,46,8.60
2018,11,13,17,47,8.60
2018,11,13,17,48,8.60
2018,11,13,17,49,8.60
2018,11,13,17,50,8.60
2018,11,13,17,51,8.60
2018,11,13,17,52,8.50
2018,11,13,17,53,8.50
2018,11,13,17,54,8.40
2018,11,13,17,55,8.40
2018,11,13,17,56,8.30
2018,11,13,17,57,8.30
2018,11,13,17,58,8.30
2018,11,13,17,59,8.20
2018,11,13,18,00,8.20
2018,11,13,18,01,8.20
2018,11,13,18,02,8.20
2018,11,13,18,03,8.20
2018,11,13,18,04,8.20
2018,11,13,18,05,8.20
2018,11,13,18,06,8.20
2018,11,13,18,07,8.20
2018,11,13,18,08,8.20
2018,11,13,18,09,8.20
2018,11,13,18,10,8.20
2018,11,13,18,11,8.20
2018,11,13,18,12,8.20
2018,11,13,18,13,8.20
2018,11,13,18,14,8.20
2018,11,13,18,15,8.20
2018,11,13,18,16,8.20
2018,11,13,18,17,8.20
2018,11,13,18,18,8.10
2018,11,13,18,19,8.10
2018,11,13,18,20,8.10
2018,11,13,18,21,8.10
2018,11,13,18,22,8.10
2018,11,13,18,23,8.10
2018,11,13,18,24,8.10
2018,11,13,18,25,8.10
2018,11,13,18,26,8.10
2018,11,13,18,27,8.10
2018,11,13,18,28,8.10
2018,11,13,18,29,8.10
2018,11,13,18,30,8.00
2018,11,13,18,31,8.00
2018,11,13,18,32,7.90
2018,11,13,18,33,7.90
2018,11,13,18,34,7.90
2018,11,13,18,35,7.80
2018,11,13,18,36,7.80
2018,11,13,18,37,7.80
2018,11,13,18,38,7.80
2018,11,13,18,39,7.80
2018,11,13,18,40,7.80
2018,11,13,18,41,7.80
2018,11,13,18,42,7.80
2018,11,13,18,43,7.80
2018,11,13,18,44,7.80
2018,11,13,18,45,7.80
2018,11,13,18,46,7.80
2018,11,13,18,47,7.80
2018,11,13,18,48,7.80
2018,11,13,18,49,7.80
2018,11,13,18,50,7.80
2018,11,13,18,51,7.80
2018,11,13,18,52,7.80
2018,11,13,18,53,7.70
2018,11,13,18,54,7.70
2018,11,13,18,55,7.70
2018,11,13,18,56,7.70
2018,11,13,18,57,7.70
2018,11,13,18,58,7.70
2018,11,13,18,59,7.70
2018,11,13,19,00,7.70
2018,11,13,19,01,7.70
2018,11,13,19,02,7.70
2018,11,13,19,03,7.80
2018,11,13,19,04,7.80
2018,11,13,19,05,7.80
2018,11,13,19,06,7.80
2018,11,13,19,07,7.80
2018,11,13,19,08,7.80
2018,11,13,19,09,7.80
2018,11,13,19,10,7.80
2018,11,13,19,11,7.80
2018,11,13,19,12,7.80
2018,11,13,19,13,7.80
2018,11,13,19,14,7.80
2018,11,13,19,15,7.80
2018,11,13,19,16,7.80
2018,11,13,19,17,7.80
2018,11,13,19,18,7.70
2018,11,13,19,19,7.70
2018,11,13,19,20,7.70
2018,11,13,19,21,7.70
2018,11,13,19,22,7.70
2018,11,13,19,23,7.70
2018,11,13,19,24,7.70
2018,11,13,19,25,7.70
2018,11,13,19,26,7.70
2018,11,13,19,27,7.70
2018,11,13,19,28,7.70
2018,11,13,19,29,7.70
2018,11,13,19,30,7.60
2018,11,13,19,31,7.60
2018,11,13,19,32,7.60
2018,11,13,19,33,7.60
2018,11,13,19,34,7.60
2018,11,13,19,35,7.60
2018,11,13,19,36,7.50
2018,11,13,19,37,7.50
2018,11,13,19,38,7.60
2018,11,13,19,39,7.60
2018,11,13,19,40,7.60
2018,11,13,19,41,7.60
2018,11,13,19,42,7.60
2018,11,13,19,43,7.60
2018,11,13,19,44,7.60
2018,11,13,19,45,7.60
2018,11,13,19,46,7.60
2018,11,13,19,47,7.50
2018,11,13,19,48,7.50
2018,11,13,19,49,7.50
2018,11,13,19,50,7.50
2018,11,13,19,51,7.40
2018,11,13,19,52,7.40
2018,11,13,19,53,7.40
2018,11,13,19,54,7.40
2018,11,13,19,55,7.40
2018,11,13,19,56,7.40
2018,11,13,19,57,7.40
2018,11,13,19,58,7.40
2018,11,13,19,59,7.40
2018,11,13,20,00,7.40
2018,11,13,20,01,7.40
2018,11,13,20,02,7.30
2018,11,13,20,03,7.30
2018,11,13,20,04,7.30